Overview Statistics Trail Chart Weather Telemetry Raw packets
 

This is the latest recevied weather packets stored in our database for station/object KB4JAC-13. If no packets are shown the sender has not sent any weather packets the latest 10 day(s).

<< 22 23 24 25 26 27 28 >>
Time Temp. Humidity Pressure Rain* Wind** Luminosity Snow
1788225998 25.56° C 87% 993.3 hPa 0 mm - - -
1788225397 25.56° C 85% 993.3 hPa 0 mm - - -
1788224796 26.11° C 84% 993.3 hPa 0 mm - - -
1788224195 26.67° C 82% 993 hPa 0 mm - - -
1788223594 26.67° C 80% 992.8 hPa 0 mm - - -
1788222993 26.67° C 79% 992.7 hPa 0 mm - - -
1788222392 27.22° C 77% 992.9 hPa 0 mm - - -
1788221792 27.78° C 75% 992.6 hPa 0 mm - - -
1788221191 28.33° C 73% 992.7 hPa 0 mm - - -
1788220590 28.89° C 70% 992.8 hPa 0 mm - - -
1788219989 28.89° C 69% 992.6 hPa 0 mm - - -
1788219388 29.44° C 66% 992.8 hPa 0 mm - - -
1788218787 30° C 64% 992.7 hPa 0 mm - - -
1788218186 31.11° C 62% 993 hPa 0 mm - - -
1788217585 32.22° C 59% 992.8 hPa 0 mm - - -
1788216985 32.22° C 59% 992.9 hPa 0 mm - - -
1788216386 31.67° C 61% 993 hPa 0 mm - - -
1788215785 32.78° C 57% 992.9 hPa 0 mm - - -
1788215185 34.44° C 54% 992.9 hPa 0 mm - - -
1788214584 36.11° C 50% 993 hPa 0 mm - - -
1788213983 35.56° C 50% 993 hPa 0 mm - - -
1788213382 36.67° C 42% 993.1 hPa 0 mm - - -
1788212783 36.67° C 42% 993.3 hPa 0 mm - - -
1788212181 36.67° C 48% 993.2 hPa 0 mm - - -
1788211583 36.67° C 42% 993.2 hPa 0 mm - - -

* Rain since midnight (hover to see other rain measurements)
** Current wind speed in m/s (hover to see current wind gust speed)